#datetime,building,power
2022-05-08T00:00:00,mfh,36.25
2022-05-08T00:01:00,mfh,36.40
2022-05-08T00:02:00,mfh,36.48
2022-05-08T00:03:00,mfh,36.54
2022-05-08T00:04:00,mfh,37.29
2022-05-08T00:05:00,mfh,37.46
2022-05-08T00:06:00,mfh,37.61
2022-05-08T00:07:00,mfh,38.30
2022-05-08T00:08:00,mfh,37.09
2022-05-08T00:09:00,mfh,37.22
2022-05-08T00:10:00,mfh,37.31
2022-05-08T00:11:00,mfh,37.41
2022-05-08T00:12:00,mfh,37.82
2022-05-08T00:13:00,mfh,37.86
2022-05-08T00:14:00,mfh,38.36
2022-05-08T00:15:00,mfh,37.90
2022-05-08T00:16:00,mfh,37.17
2022-05-08T00:17:00,mfh,37.19
2022-05-08T00:18:00,mfh,37.78
2022-05-08T00:19:00,mfh,37.13
2022-05-08T00:20:00,mfh,37.07
2022-05-08T00:21:00,mfh,37.57
2022-05-08T00:22:00,mfh,37.50
2022-05-08T00:23:00,mfh,37.52
2022-05-08T00:24:00,mfh,37.54
2022-05-08T00:25:00,mfh,36.84
2022-05-08T00:26:00,mfh,36.86
2022-05-08T00:27:00,mfh,36.95
2022-05-08T00:28:00,mfh,36.86
2022-05-08T00:29:00,mfh,37.51
2022-05-08T00:30:00,mfh,37.49
2022-05-08T00:31:00,mfh,37.50
2022-05-08T00:32:00,mfh,37.90
2022-05-08T00:33:00,mfh,36.77
2022-05-08T00:34:00,mfh,36.79
2022-05-08T00:35:00,mfh,36.77
2022-05-08T00:36:00,mfh,36.79
2022-05-08T00:37:00,mfh,37.79
2022-05-08T00:38:00,mfh,38.11
2022-05-08T00:39:00,mfh,38.34
2022-05-08T00:40:00,mfh,38.30
2022-05-08T00:41:00,mfh,37.62
2022-05-08T00:42:00,mfh,37.67
2022-05-08T00:43:00,mfh,37.80
2022-05-08T00:44:00,mfh,37.80
2022-05-08T00:45:00,mfh,38.50
2022-05-08T00:46:00,mfh,38.52
2022-05-08T00:47:00,mfh,39.38
2022-05-08T00:48:00,mfh,38.21
2022-05-08T00:49:00,mfh,38.30
2022-05-08T00:50:00,mfh,37.49
2022-05-08T00:51:00,mfh,37.47
2022-05-08T00:52:00,mfh,37.31
2022-05-08T00:53:00,mfh,37.39
2022-05-08T00:54:00,mfh,38.04
2022-05-08T00:55:00,mfh,37.95
2022-05-08T00:56:00,mfh,37.49
2022-05-08T00:57:00,mfh,37.50
2022-05-08T00:58:00,mfh,36.80
2022-05-08T00:59:00,mfh,36.80
2022-05-08T01:00:00,mfh,36.86
2022-05-08T01:01:00,mfh,36.86
2022-05-08T01:02:00,mfh,37.50
2022-05-08T01:03:00,mfh,37.54
2022-05-08T01:04:00,mfh,37.54
2022-05-08T01:05:00,mfh,39.30
2022-05-08T01:06:00,mfh,37.10
2022-05-08T01:07:00,mfh,38.64
2022-05-08T01:08:00,mfh,38.70
2022-05-08T01:09:00,mfh,38.70
2022-05-08T01:10:00,mfh,39.58
2022-05-08T01:11:00,mfh,39.45
2022-05-08T01:12:00,mfh,37.75
2022-05-08T01:13:00,mfh,37.79
2022-05-08T01:14:00,mfh,36.93
2022-05-08T01:15:00,mfh,37.02
2022-05-08T01:16:00,mfh,37.93
2022-05-08T01:17:00,mfh,37.02
2022-05-08T01:18:00,mfh,37.00
2022-05-08T01:19:00,mfh,37.66
2022-05-08T01:20:00,mfh,37.69
2022-05-08T01:21:00,mfh,37.76
2022-05-08T01:22:00,mfh,37.84
2022-05-08T01:23:00,mfh,37.54
2022-05-08T01:24:00,mfh,37.19
2022-05-08T01:25:00,mfh,36.99
2022-05-08T01:26:00,mfh,37.94
2022-05-08T01:27:00,mfh,38.61
2022-05-08T01:28:00,mfh,38.58
2022-05-08T01:29:00,mfh,38.60
2022-05-08T01:30:00,mfh,38.60
2022-05-08T01:31:00,mfh,37.26
2022-05-08T01:32:00,mfh,37.26
2022-05-08T01:33:00,mfh,37.24
2022-05-08T01:34:00,mfh,37.22
2022-05-08T01:35:00,mfh,37.85
2022-05-08T01:36:00,mfh,37.94
2022-05-08T01:37:00,mfh,38.82
2022-05-08T01:38:00,mfh,37.91
2022-05-08T01:39:00,mfh,37.10
2022-05-08T01:40:00,mfh,37.25
2022-05-08T01:41:00,mfh,37.14
2022-05-08T01:42:00,mfh,37.34
2022-05-08T01:43:00,mfh,37.75
2022-05-08T01:44:00,mfh,37.80
2022-05-08T01:45:00,mfh,37.64
2022-05-08T01:46:00,mfh,37.74
2022-05-08T01:47:00,mfh,37.21
2022-05-08T01:48:00,mfh,37.22
2022-05-08T01:49:00,mfh,37.82
2022-05-08T01:50:00,mfh,37.29
2022-05-08T01:51:00,mfh,37.09
2022-05-08T01:52:00,mfh,37.76
2022-05-08T01:53:00,mfh,37.79
2022-05-08T01:54:00,mfh,37.65
2022-05-08T01:55:00,mfh,37.47
2022-05-08T01:56:00,mfh,37.23
2022-05-08T01:57:00,mfh,36.85
2022-05-08T01:58:00,mfh,37.09
2022-05-08T01:59:00,mfh,37.08
2022-05-08T02:00:00,mfh,37.65
2022-05-08T02:01:00,mfh,37.66
2022-05-08T02:02:00,mfh,37.66
2022-05-08T02:03:00,mfh,38.61
2022-05-08T02:04:00,mfh,37.06
2022-05-08T02:05:00,mfh,37.07
2022-05-08T02:06:00,mfh,37.06
2022-05-08T02:07:00,mfh,37.14
2022-05-08T02:08:00,mfh,37.47
2022-05-08T02:09:00,mfh,37.48
2022-05-08T02:10:00,mfh,37.56
2022-05-08T02:11:00,mfh,37.59
2022-05-08T02:12:00,mfh,36.92
2022-05-08T02:13:00,mfh,37.09
2022-05-08T02:14:00,mfh,36.95
2022-05-08T02:15:00,mfh,36.93
2022-05-08T02:16:00,mfh,37.56
2022-05-08T02:17:00,mfh,37.54
2022-05-08T02:18:00,mfh,37.97
2022-05-08T02:19:00,mfh,37.76
2022-05-08T02:20:00,mfh,37.76
2022-05-08T02:21:00,mfh,36.97
2022-05-08T02:22:00,mfh,36.90
2022-05-08T02:23:00,mfh,36.90
2022-05-08T02:24:00,mfh,36.86
2022-05-08T02:25:00,mfh,37.70
2022-05-08T02:26:00,mfh,37.69
2022-05-08T02:27:00,mfh,37.69
2022-05-08T02:28:00,mfh,38.38
2022-05-08T02:29:00,mfh,37.00
2022-05-08T02:30:00,mfh,37.00
2022-05-08T02:31:00,mfh,36.99
2022-05-08T02:32:00,mfh,36.97
2022-05-08T02:33:00,mfh,37.76
2022-05-08T02:34:00,mfh,37.71
2022-05-08T02:35:00,mfh,37.59
2022-05-08T02:36:00,mfh,37.62
2022-05-08T02:37:00,mfh,37.55
2022-05-08T02:38:00,mfh,36.92
2022-05-08T02:39:00,mfh,36.90
2022-05-08T02:40:00,mfh,36.98
2022-05-08T02:41:00,mfh,37.59
2022-05-08T02:42:00,mfh,37.69
2022-05-08T02:43:00,mfh,37.71
2022-05-08T02:44:00,mfh,38.35
2022-05-08T02:45:00,mfh,37.13
2022-05-08T02:46:00,mfh,37.26
2022-05-08T02:47:00,mfh,37.26
2022-05-08T02:48:00,mfh,37.23
2022-05-08T02:49:00,mfh,37.80
2022-05-08T02:50:00,mfh,38.42
2022-05-08T02:51:00,mfh,38.24
2022-05-08T02:52:00,mfh,38.42
2022-05-08T02:53:00,mfh,38.08
2022-05-08T02:54:00,mfh,37.33
2022-05-08T02:55:00,mfh,37.34
2022-05-08T02:56:00,mfh,37.38
2022-05-08T02:57:00,mfh,37.26
2022-05-08T02:58:00,mfh,37.74
2022-05-08T02:59:00,mfh,37.80
2022-05-08T03:00:00,mfh,37.78
2022-05-08T03:01:00,mfh,37.90
2022-05-08T03:02:00,mfh,37.01
2022-05-08T03:03:00,mfh,37.00
2022-05-08T03:04:00,mfh,36.91
2022-05-08T03:05:00,mfh,37.02
2022-05-08T03:06:00,mfh,37.62
2022-05-08T03:07:00,mfh,37.63
2022-05-08T03:08:00,mfh,37.63
2022-05-08T03:09:00,mfh,37.55
2022-05-08T03:10:00,mfh,37.73
2022-05-08T03:11:00,mfh,36.86
2022-05-08T03:12:00,mfh,36.85
2022-05-08T03:13:00,mfh,36.83
2022-05-08T03:14:00,mfh,37.48
2022-05-08T03:15:00,mfh,45.81
2022-05-08T03:16:00,mfh,46.78
2022-05-08T03:17:00,mfh,46.88
2022-05-08T03:18:00,mfh,46.17
2022-05-08T03:19:00,mfh,46.37
2022-05-08T03:20:00,mfh,46.26
2022-05-08T03:21:00,mfh,46.22
2022-05-08T03:22:00,mfh,46.93
2022-05-08T03:23:00,mfh,46.90
2022-05-08T03:24:00,mfh,46.99
2022-05-08T03:25:00,mfh,46.85
2022-05-08T03:26:00,mfh,46.86
2022-05-08T03:27:00,mfh,46.16
2022-05-08T03:28:00,mfh,46.18
2022-05-08T03:29:00,mfh,46.34
2022-05-08T03:30:00,mfh,46.87
2022-05-08T03:31:00,mfh,47.09
2022-05-08T03:32:00,mfh,47.26
2022-05-08T03:33:00,mfh,47.20
2022-05-08T03:34:00,mfh,46.38
2022-05-08T03:35:00,mfh,47.30
2022-05-08T03:36:00,mfh,46.37
2022-05-08T03:37:00,mfh,46.38
2022-05-08T03:38:00,mfh,46.99
2022-05-08T03:39:00,mfh,47.13
2022-05-08T03:40:00,mfh,47.14
2022-05-08T03:41:00,mfh,47.11
2022-05-08T03:42:00,mfh,47.13
2022-05-08T03:43:00,mfh,46.43
2022-05-08T03:44:00,mfh,46.47
2022-05-08T03:45:00,mfh,46.48
2022-05-08T03:46:00,mfh,46.57
2022-05-08T03:47:00,mfh,47.13
2022-05-08T03:48:00,mfh,47.17
2022-05-08T03:49:00,mfh,47.22
2022-05-08T03:50:00,mfh,47.28
2022-05-08T03:51:00,mfh,46.55
2022-05-08T03:52:00,mfh,46.49
2022-05-08T03:53:00,mfh,46.14
2022-05-08T03:54:00,mfh,46.16
2022-05-08T03:55:00,mfh,46.75
2022-05-08T03:56:00,mfh,46.71
2022-05-08T03:57:00,mfh,46.72
2022-05-08T03:58:00,mfh,46.73
2022-05-08T03:59:00,mfh,47.37
2022-05-08T04:00:00,mfh,46.08
2022-05-08T04:01:00,mfh,46.06
2022-05-08T04:02:00,mfh,45.93
2022-05-08T04:03:00,mfh,46.55
2022-05-08T04:04:00,mfh,46.59
2022-05-08T04:05:00,mfh,46.67
2022-05-08T04:06:00,mfh,47.60
2022-05-08T04:07:00,mfh,46.84
2022-05-08T04:08:00,mfh,46.14
2022-05-08T04:09:00,mfh,46.12
2022-05-08T04:10:00,mfh,46.08
2022-05-08T04:11:00,mfh,46.68
2022-05-08T04:12:00,mfh,46.79
2022-05-08T04:13:00,mfh,47.06
2022-05-08T04:14:00,mfh,47.09
2022-05-08T04:15:00,mfh,47.41
2022-05-08T04:16:00,mfh,47.32
2022-05-08T04:17:00,mfh,46.59
2022-05-08T04:18:00,mfh,46.54
2022-05-08T04:19:00,mfh,46.38
2022-05-08T04:20:00,mfh,47.05
2022-05-08T04:21:00,mfh,47.77
2022-05-08T04:22:00,mfh,47.84
2022-05-08T04:23:00,mfh,48.62
2022-05-08T04:24:00,mfh,47.01
2022-05-08T04:25:00,mfh,46.22
2022-05-08T04:26:00,mfh,46.22
2022-05-08T04:27:00,mfh,46.43
2022-05-08T04:28:00,mfh,46.78
2022-05-08T04:29:00,mfh,46.89
2022-05-08T04:30:00,mfh,46.69
2022-05-08T04:31:00,mfh,46.73
2022-05-08T04:32:00,mfh,46.80
2022-05-08T04:33:00,mfh,46.35
2022-05-08T04:34:00,mfh,46.33
2022-05-08T04:35:00,mfh,46.35
2022-05-08T04:36:00,mfh,47.06
2022-05-08T04:37:00,mfh,47.04
2022-05-08T04:38:00,mfh,47.21
2022-05-08T04:39:00,mfh,47.14
2022-05-08T04:40:00,mfh,46.74
2022-05-08T04:41:00,mfh,46.75
2022-05-08T04:42:00,mfh,46.84
2022-05-08T04:43:00,mfh,46.51
2022-05-08T04:44:00,mfh,46.73
2022-05-08T04:45:00,mfh,46.70
2022-05-08T04:46:00,mfh,46.74
2022-05-08T04:47:00,mfh,46.69
2022-05-08T04:48:00,mfh,46.53
2022-05-08T04:49:00,mfh,45.88
2022-05-08T04:50:00,mfh,45.21
2022-05-08T04:51:00,mfh,45.67
2022-05-08T04:52:00,mfh,45.66
2022-05-08T04:53:00,mfh,46.38
2022-05-08T04:54:00,mfh,46.38
2022-05-08T04:55:00,mfh,46.44
2022-05-08T04:56:00,mfh,46.47
2022-05-08T04:57:00,mfh,46.22
2022-05-08T04:58:00,mfh,45.84
2022-05-08T04:59:00,mfh,45.85
2022-05-08T05:00:00,mfh,45.82
2022-05-08T05:01:00,mfh,65.40
2022-05-08T05:02:00,mfh,68.93
2022-05-08T05:03:00,mfh,68.14
2022-05-08T05:04:00,mfh,68.40
2022-05-08T05:05:00,mfh,68.43
2022-05-08T05:06:00,mfh,67.87
2022-05-08T05:07:00,mfh,67.73
2022-05-08T05:08:00,mfh,67.32
2022-05-08T05:09:00,mfh,67.61
2022-05-08T05:10:00,mfh,66.96
2022-05-08T05:11:00,mfh,67.06
2022-05-08T05:12:00,mfh,67.04
2022-05-08T05:13:00,mfh,67.06
2022-05-08T05:14:00,mfh,66.95
2022-05-08T05:15:00,mfh,66.91
2022-05-08T05:16:00,mfh,67.54
2022-05-08T05:17:00,mfh,66.71
2022-05-08T05:18:00,mfh,67.41
2022-05-08T05:19:00,mfh,67.23
2022-05-08T05:20:00,mfh,67.55
2022-05-08T05:21:00,mfh,67.58
2022-05-08T05:22:00,mfh,66.77
2022-05-08T05:23:00,mfh,66.70
2022-05-08T05:24:00,mfh,66.89
2022-05-08T05:25:00,mfh,66.96
2022-05-08T05:26:00,mfh,67.49
2022-05-08T05:27:00,mfh,67.61
2022-05-08T05:28:00,mfh,67.26
2022-05-08T05:29:00,mfh,68.27
2022-05-08T05:30:00,mfh,66.59
2022-05-08T05:31:00,mfh,66.75
2022-05-08T05:32:00,mfh,67.09
2022-05-08T05:33:00,mfh,67.16
2022-05-08T05:34:00,mfh,68.50
2022-05-08T05:35:00,mfh,67.99
2022-05-08T05:36:00,mfh,67.97
2022-05-08T05:37:00,mfh,68.46
2022-05-08T05:38:00,mfh,68.40
2022-05-08T05:39:00,mfh,67.70
2022-05-08T05:40:00,mfh,67.57
2022-05-08T05:41:00,mfh,69.04
2022-05-08T05:42:00,mfh,68.08
2022-05-08T05:43:00,mfh,68.68
2022-05-08T05:44:00,mfh,68.50
2022-05-08T05:45:00,mfh,67.93
2022-05-08T05:46:00,mfh,68.61
2022-05-08T05:47:00,mfh,68.14
2022-05-08T05:48:00,mfh,67.13
2022-05-08T05:49:00,mfh,66.97
2022-05-08T05:50:00,mfh,66.98
2022-05-08T05:51:00,mfh,67.67
2022-05-08T05:52:00,mfh,67.73
2022-05-08T05:53:00,mfh,67.66
2022-05-08T05:54:00,mfh,67.78
2022-05-08T05:55:00,mfh,67.05
2022-05-08T05:56:00,mfh,67.00
2022-05-08T05:57:00,mfh,67.14
2022-05-08T05:58:00,mfh,66.93
2022-05-08T05:59:00,mfh,67.53
2022-05-08T06:00:00,mfh,67.82
2022-05-08T06:01:00,mfh,68.44
2022-05-08T06:02:00,mfh,67.93
2022-05-08T06:03:00,mfh,67.39
2022-05-08T06:04:00,mfh,67.19
2022-05-08T06:05:00,mfh,67.46
2022-05-08T06:06:00,mfh,68.25
2022-05-08T06:07:00,mfh,68.35
2022-05-08T06:08:00,mfh,68.44
2022-05-08T06:09:00,mfh,67.85
2022-05-08T06:10:00,mfh,67.46
2022-05-08T06:11:00,mfh,67.33
2022-05-08T06:12:00,mfh,66.53
2022-05-08T06:13:00,mfh,66.51
2022-05-08T06:14:00,mfh,66.44
2022-05-08T06:15:00,mfh,66.41
2022-05-08T06:16:00,mfh,66.99
2022-05-08T06:17:00,mfh,67.03
2022-05-08T06:18:00,mfh,66.98
2022-05-08T06:19:00,mfh,75.22
2022-05-08T06:20:00,mfh,79.72
2022-05-08T06:21:00,mfh,79.98
2022-05-08T06:22:00,mfh,79.84
2022-05-08T06:23:00,mfh,87.89
2022-05-08T06:24:00,mfh,88.27
2022-05-08T06:25:00,mfh,88.13
2022-05-08T06:26:00,mfh,88.09
2022-05-08T06:27:00,mfh,87.97
2022-05-08T06:28:00,mfh,87.39
2022-05-08T06:29:00,mfh,87.23
2022-05-08T06:30:00,mfh,87.05
2022-05-08T06:31:00,mfh,87.00
2022-05-08T06:32:00,mfh,87.40
2022-05-08T06:33:00,mfh,86.93
2022-05-08T06:34:00,mfh,86.85
2022-05-08T06:35:00,mfh,86.99
2022-05-08T06:36:00,mfh,86.64
2022-05-08T06:37:00,mfh,86.62
2022-05-08T06:38:00,mfh,86.56
2022-05-08T06:39:00,mfh,86.67
2022-05-08T06:40:00,mfh,86.94
2022-05-08T06:41:00,mfh,86.61
2022-05-08T06:42:00,mfh,86.63
2022-05-08T06:43:00,mfh,86.57
2022-05-08T06:44:00,mfh,86.55
2022-05-08T06:45:00,mfh,86.17
2022-05-08T06:46:00,mfh,86.26
2022-05-08T06:47:00,mfh,86.18
2022-05-08T06:48:00,mfh,86.18
2022-05-08T06:49:00,mfh,86.33
2022-05-08T06:50:00,mfh,86.34
2022-05-08T06:51:00,mfh,86.33
2022-05-08T06:52:00,mfh,86.35
2022-05-08T06:53:00,mfh,86.04
2022-05-08T06:54:00,mfh,86.15
2022-05-08T06:55:00,mfh,86.11
2022-05-08T06:56:00,mfh,86.10
2022-05-08T06:57:00,mfh,86.28
2022-05-08T06:58:00,mfh,86.26
2022-05-08T06:59:00,mfh,79.79
2022-05-08T07:00:00,mfh,65.81
2022-05-08T07:01:00,mfh,65.11
2022-05-08T07:02:00,mfh,65.16
2022-05-08T07:03:00,mfh,65.26
2022-05-08T07:04:00,mfh,65.16
2022-05-08T07:05:00,mfh,65.91
2022-05-08T07:06:00,mfh,66.03
2022-05-08T07:07:00,mfh,66.28
2022-05-08T07:08:00,mfh,65.99
2022-05-08T07:09:00,mfh,66.58
2022-05-08T07:10:00,mfh,79.72
2022-05-08T07:11:00,mfh,83.28
2022-05-08T07:12:00,mfh,83.06
2022-05-08T07:13:00,mfh,82.89
2022-05-08T07:14:00,mfh,83.06
2022-05-08T07:15:00,mfh,82.84
2022-05-08T07:16:00,mfh,82.65
2022-05-08T07:17:00,mfh,82.52
2022-05-08T07:18:00,mfh,82.05
2022-05-08T07:19:00,mfh,82.40
2022-05-08T07:20:00,mfh,82.16
2022-05-08T07:21:00,mfh,82.13
2022-05-08T07:22:00,mfh,82.47
2022-05-08T07:23:00,mfh,82.45
2022-05-08T07:24:00,mfh,81.97
2022-05-08T07:25:00,mfh,81.84
2022-05-08T07:26:00,mfh,81.42
2022-05-08T07:27:00,mfh,81.34
2022-05-08T07:28:00,mfh,81.32
2022-05-08T07:29:00,mfh,81.73
2022-05-08T07:30:00,mfh,81.61
2022-05-08T07:31:00,mfh,81.66
2022-05-08T07:32:00,mfh,81.59
2022-05-08T07:33:00,mfh,81.64
2022-05-08T07:34:00,mfh,81.56
2022-05-08T07:35:00,mfh,80.98
2022-05-08T07:36:00,mfh,80.95
2022-05-08T07:37:00,mfh,80.92
2022-05-08T07:38:00,mfh,81.31
2022-05-08T07:39:00,mfh,81.47
2022-05-08T07:40:00,mfh,81.42
2022-05-08T07:41:00,mfh,81.53
2022-05-08T07:42:00,mfh,81.83
2022-05-08T07:43:00,mfh,81.17
2022-05-08T07:44:00,mfh,81.09
2022-05-08T07:45:00,mfh,77.08
2022-05-08T07:46:00,mfh,83.46
2022-05-08T07:47:00,mfh,84.22
2022-05-08T07:48:00,mfh,84.11
2022-05-08T07:49:00,mfh,84.10
2022-05-08T07:50:00,mfh,83.95
2022-05-08T07:51:00,mfh,83.48
2022-05-08T07:52:00,mfh,83.39
2022-05-08T07:53:00,mfh,83.59
2022-05-08T07:54:00,mfh,83.33
2022-05-08T07:55:00,mfh,83.54
2022-05-08T07:56:00,mfh,83.38
2022-05-08T07:57:00,mfh,83.55
2022-05-08T07:58:00,mfh,83.37
2022-05-08T07:59:00,mfh,82.85
2022-05-08T08:00:00,mfh,82.86
2022-05-08T08:01:00,mfh,82.84
2022-05-08T08:02:00,mfh,82.70
2022-05-08T08:03:00,mfh,79.42
2022-05-08T08:04:00,mfh,65.01
2022-05-08T08:05:00,mfh,65.73
2022-05-08T08:06:00,mfh,65.34
2022-05-08T08:07:00,mfh,65.52
2022-05-08T08:08:00,mfh,64.93
2022-05-08T08:09:00,mfh,64.96
2022-05-08T08:10:00,mfh,65.69
2022-05-08T08:11:00,mfh,65.91
2022-05-08T08:12:00,mfh,65.85
2022-05-08T08:13:00,mfh,66.22
2022-05-08T08:14:00,mfh,67.06
2022-05-08T08:15:00,mfh,66.77
2022-05-08T08:16:00,mfh,66.22
2022-05-08T08:17:00,mfh,66.25
2022-05-08T08:18:00,mfh,66.70
2022-05-08T08:19:00,mfh,66.82
2022-05-08T08:20:00,mfh,66.72
2022-05-08T08:21:00,mfh,66.87
2022-05-08T08:22:00,mfh,66.90
2022-05-08T08:23:00,mfh,66.88
2022-05-08T08:24:00,mfh,74.06
2022-05-08T08:25:00,mfh,74.41
2022-05-08T08:26:00,mfh,74.89
2022-05-08T08:27:00,mfh,74.60
2022-05-08T08:28:00,mfh,74.69
2022-05-08T08:29:00,mfh,75.12
2022-05-08T08:30:00,mfh,74.53
2022-05-08T08:31:00,mfh,74.32
2022-05-08T08:32:00,mfh,74.37
2022-05-08T08:33:00,mfh,73.36
2022-05-08T08:34:00,mfh,73.73
2022-05-08T08:35:00,mfh,73.19
2022-05-08T08:36:00,mfh,73.01
2022-05-08T08:37:00,mfh,73.60
2022-05-08T08:38:00,mfh,73.54
2022-05-08T08:39:00,mfh,73.54
2022-05-08T08:40:00,mfh,74.05
2022-05-08T08:41:00,mfh,72.82
2022-05-08T08:42:00,mfh,72.78
2022-05-08T08:43:00,mfh,73.02
2022-05-08T08:44:00,mfh,73.37
2022-05-08T08:45:00,mfh,66.79
2022-05-08T08:46:00,mfh,66.80
2022-05-08T08:47:00,mfh,66.95
2022-05-08T08:48:00,mfh,66.96
2022-05-08T08:49:00,mfh,66.32
2022-05-08T08:50:00,mfh,66.64
2022-05-08T08:51:00,mfh,66.32
2022-05-08T08:52:00,mfh,66.93
2022-05-08T08:53:00,mfh,66.74
2022-05-08T08:54:00,mfh,66.66
2022-05-08T08:55:00,mfh,72.90
2022-05-08T08:56:00,mfh,79.34
2022-05-08T08:57:00,mfh,83.25
2022-05-08T08:58:00,mfh,84.86
2022-05-08T08:59:00,mfh,87.88
2022-05-08T09:00:00,mfh,88.08
2022-05-08T09:01:00,mfh,88.10
2022-05-08T09:02:00,mfh,87.73
2022-05-08T09:03:00,mfh,87.62
2022-05-08T09:04:00,mfh,87.41
2022-05-08T09:05:00,mfh,87.06
2022-05-08T09:06:00,mfh,86.88
2022-05-08T09:07:00,mfh,86.73
2022-05-08T09:08:00,mfh,86.63
2022-05-08T09:09:00,mfh,86.76
2022-05-08T09:10:00,mfh,86.73
2022-05-08T09:11:00,mfh,86.81
2022-05-08T09:12:00,mfh,86.59
2022-05-08T09:13:00,mfh,86.51
2022-05-08T09:14:00,mfh,86.41
2022-05-08T09:15:00,mfh,86.24
2022-05-08T09:16:00,mfh,86.23
2022-05-08T09:17:00,mfh,86.50
2022-05-08T09:18:00,mfh,86.50
2022-05-08T09:19:00,mfh,86.49
2022-05-08T09:20:00,mfh,81.98
2022-05-08T09:21:00,mfh,82.26
2022-05-08T09:22:00,mfh,77.97
2022-05-08T09:23:00,mfh,78.28
2022-05-08T09:24:00,mfh,78.26
2022-05-08T09:25:00,mfh,73.73
2022-05-08T09:26:00,mfh,73.91
2022-05-08T09:27:00,mfh,66.75
2022-05-08T09:28:00,mfh,66.84
2022-05-08T09:29:00,mfh,67.31
2022-05-08T09:30:00,mfh,66.42
2022-05-08T09:31:00,mfh,66.60
2022-05-08T09:32:00,mfh,66.62
2022-05-08T09:33:00,mfh,66.88
2022-05-08T09:34:00,mfh,67.57
2022-05-08T09:35:00,mfh,67.52
2022-05-08T09:36:00,mfh,67.87
2022-05-08T09:37:00,mfh,68.11
2022-05-08T09:38:00,mfh,67.44
2022-05-08T09:39:00,mfh,67.22
2022-05-08T09:40:00,mfh,67.32
2022-05-08T09:41:00,mfh,67.20
2022-05-08T09:42:00,mfh,67.99
2022-05-08T09:43:00,mfh,68.03
2022-05-08T09:44:00,mfh,68.34
2022-05-08T09:45:00,mfh,67.07
2022-05-08T09:46:00,mfh,66.66
2022-05-08T09:47:00,mfh,66.37
2022-05-08T09:48:00,mfh,66.54
2022-05-08T09:49:00,mfh,66.29
2022-05-08T09:50:00,mfh,67.99
2022-05-08T09:51:00,mfh,67.07
2022-05-08T09:52:00,mfh,67.13
2022-05-08T09:53:00,mfh,67.09
2022-05-08T09:54:00,mfh,66.46
2022-05-08T09:55:00,mfh,66.37
2022-05-08T09:56:00,mfh,66.29
2022-05-08T09:57:00,mfh,66.42
2022-05-08T09:58:00,mfh,67.01
2022-05-08T09:59:00,mfh,66.94
2022-05-08T10:00:00,mfh,66.99
2022-05-08T10:01:00,mfh,66.93
2022-05-08T10:02:00,mfh,66.81
2022-05-08T10:03:00,mfh,67.37
2022-05-08T10:04:00,mfh,67.58
2022-05-08T10:05:00,mfh,67.78
2022-05-08T10:06:00,mfh,67.94
2022-05-08T10:07:00,mfh,68.60
2022-05-08T10:08:00,mfh,68.55
2022-05-08T10:09:00,mfh,68.51
2022-05-08T10:10:00,mfh,68.77
2022-05-08T10:11:00,mfh,67.73
2022-05-08T10:12:00,mfh,67.71
2022-05-08T10:13:00,mfh,67.68
2022-05-08T10:14:00,mfh,67.72
2022-05-08T10:15:00,mfh,68.22
2022-05-08T10:16:00,mfh,68.25
2022-05-08T10:17:00,mfh,68.25
2022-05-08T10:18:00,mfh,68.39
2022-05-08T10:19:00,mfh,67.86
2022-05-08T10:20:00,mfh,67.85
2022-05-08T10:21:00,mfh,68.61
2022-05-08T10:22:00,mfh,68.93
2022-05-08T10:23:00,mfh,68.26
2022-05-08T10:24:00,mfh,64.85
2022-05-08T10:25:00,mfh,64.82
2022-05-08T10:26:00,mfh,64.80
2022-05-08T10:27:00,mfh,64.18
2022-05-08T10:28:00,mfh,64.15
2022-05-08T10:29:00,mfh,65.41
2022-05-08T10:30:00,mfh,64.27
2022-05-08T10:31:00,mfh,65.49
2022-05-08T10:32:00,mfh,65.06
2022-05-08T10:33:00,mfh,65.48
2022-05-08T10:34:00,mfh,65.60
2022-05-08T10:35:00,mfh,66.04
2022-05-08T10:36:00,mfh,64.95
2022-05-08T10:37:00,mfh,66.27
2022-05-08T10:38:00,mfh,64.02
2022-05-08T10:39:00,mfh,64.38
2022-05-08T10:40:00,mfh,65.05
2022-05-08T10:41:00,mfh,65.33
2022-05-08T10:42:00,mfh,64.90
2022-05-08T10:43:00,mfh,63.34
2022-05-08T10:44:00,mfh,63.45
2022-05-08T10:45:00,mfh,63.43
2022-05-08T10:46:00,mfh,63.38
2022-05-08T10:47:00,mfh,63.34
2022-05-08T10:48:00,mfh,64.48
2022-05-08T10:49:00,mfh,64.62
2022-05-08T10:50:00,mfh,64.18
2022-05-08T10:51:00,mfh,63.58
2022-05-08T10:52:00,mfh,64.22
2022-05-08T10:53:00,mfh,63.54
2022-05-08T10:54:00,mfh,63.54
2022-05-08T10:55:00,mfh,63.64
2022-05-08T10:56:00,mfh,64.34
2022-05-08T10:57:00,mfh,64.35
2022-05-08T10:58:00,mfh,64.34
2022-05-08T10:59:00,mfh,64.70
2022-05-08T11:00:00,mfh,63.77
2022-05-08T11:01:00,mfh,63.62
2022-05-08T11:02:00,mfh,63.64
2022-05-08T11:03:00,mfh,63.42
2022-05-08T11:04:00,mfh,64.23
2022-05-08T11:05:00,mfh,64.85
2022-05-08T11:06:00,mfh,64.75
2022-05-08T11:07:00,mfh,64.68
2022-05-08T11:08:00,mfh,64.02
2022-05-08T11:09:00,mfh,63.86
2022-05-08T11:10:00,mfh,64.35
2022-05-08T11:11:00,mfh,63.91
2022-05-08T11:12:00,mfh,64.69
2022-05-08T11:13:00,mfh,65.11
2022-05-08T11:14:00,mfh,65.37
2022-05-08T11:15:00,mfh,65.92
2022-05-08T11:16:00,mfh,65.14
2022-05-08T11:17:00,mfh,65.84
2022-05-08T11:18:00,mfh,65.74
2022-05-08T11:19:00,mfh,66.72
2022-05-08T11:20:00,mfh,67.12
2022-05-08T11:21:00,mfh,66.89
2022-05-08T11:22:00,mfh,67.50
2022-05-08T11:23:00,mfh,67.24
2022-05-08T11:24:00,mfh,66.26
2022-05-08T11:25:00,mfh,66.25
2022-05-08T11:26:00,mfh,65.79
2022-05-08T11:27:00,mfh,65.91
2022-05-08T11:28:00,mfh,66.94
2022-05-08T11:29:00,mfh,67.08
2022-05-08T11:30:00,mfh,67.08
2022-05-08T11:31:00,mfh,66.76
2022-05-08T11:32:00,mfh,66.69
2022-05-08T11:33:00,mfh,66.09
2022-05-08T11:34:00,mfh,65.56
2022-05-08T11:35:00,mfh,65.34
2022-05-08T11:36:00,mfh,65.23
2022-05-08T11:37:00,mfh,66.00
2022-05-08T11:38:00,mfh,66.18
2022-05-08T11:39:00,mfh,65.90
2022-05-08T11:40:00,mfh,66.25
2022-05-08T11:41:00,mfh,66.32
2022-05-08T11:42:00,mfh,65.62
2022-05-08T11:43:00,mfh,65.96
2022-05-08T11:44:00,mfh,65.58
2022-05-08T11:45:00,mfh,65.36
2022-05-08T11:46:00,mfh,64.90
2022-05-08T11:47:00,mfh,65.05
2022-05-08T11:48:00,mfh,65.11
2022-05-08T11:49:00,mfh,64.18
2022-05-08T11:50:00,mfh,64.63
2022-05-08T11:51:00,mfh,64.44
2022-05-08T11:52:00,mfh,64.58
2022-05-08T11:53:00,mfh,65.57
2022-05-08T11:54:00,mfh,65.86
2022-05-08T11:55:00,mfh,66.08
2022-05-08T11:56:00,mfh,66.34
2022-05-08T11:57:00,mfh,65.15
2022-05-08T11:58:00,mfh,65.36
2022-05-08T11:59:00,mfh,65.33
2022-05-08T12:00:00,mfh,65.83
2022-05-08T12:01:00,mfh,66.40
2022-05-08T12:02:00,mfh,66.83
2022-05-08T12:03:00,mfh,67.08
2022-05-08T12:04:00,mfh,59.31
2022-05-08T12:05:00,mfh,58.76
2022-05-08T12:06:00,mfh,58.48
2022-05-08T12:07:00,mfh,58.62
2022-05-08T12:08:00,mfh,58.80
2022-05-08T12:09:00,mfh,59.13
2022-05-08T12:10:00,mfh,59.49
2022-05-08T12:11:00,mfh,59.59
2022-05-08T12:12:00,mfh,59.45
2022-05-08T12:13:00,mfh,58.55
2022-05-08T12:14:00,mfh,59.04
2022-05-08T12:15:00,mfh,59.56
2022-05-08T12:16:00,mfh,59.55
2022-05-08T12:17:00,mfh,59.52
2022-05-08T12:18:00,mfh,60.42
2022-05-08T12:19:00,mfh,60.38
2022-05-08T12:20:00,mfh,60.15
2022-05-08T12:21:00,mfh,60.17
2022-05-08T12:22:00,mfh,59.47
2022-05-08T12:23:00,mfh,59.92
2022-05-08T12:24:00,mfh,59.53
2022-05-08T12:25:00,mfh,59.71
2022-05-08T12:26:00,mfh,60.97
2022-05-08T12:27:00,mfh,60.87
2022-05-08T12:28:00,mfh,60.12
2022-05-08T12:29:00,mfh,59.90
2022-05-08T12:30:00,mfh,59.07
2022-05-08T12:31:00,mfh,59.59
2022-05-08T12:32:00,mfh,59.41
2022-05-08T12:33:00,mfh,59.51
2022-05-08T12:34:00,mfh,60.11
2022-05-08T12:35:00,mfh,60.14
2022-05-08T12:36:00,mfh,60.17
2022-05-08T12:37:00,mfh,60.21
2022-05-08T12:38:00,mfh,59.16
2022-05-08T12:39:00,mfh,59.25
2022-05-08T12:40:00,mfh,58.79
2022-05-08T12:41:00,mfh,58.45
2022-05-08T12:42:00,mfh,58.41
2022-05-08T12:43:00,mfh,59.07
2022-05-08T12:44:00,mfh,59.21
2022-05-08T12:45:00,mfh,60.99
2022-05-08T12:46:00,mfh,60.39
2022-05-08T12:47:00,mfh,59.60
2022-05-08T12:48:00,mfh,59.11
2022-05-08T12:49:00,mfh,59.17
2022-05-08T12:50:00,mfh,59.39
2022-05-08T12:51:00,mfh,60.94
2022-05-08T12:52:00,mfh,60.08
2022-05-08T12:53:00,mfh,59.97
2022-05-08T12:54:00,mfh,59.93
2022-05-08T12:55:00,mfh,58.82
2022-05-08T12:56:00,mfh,58.70
2022-05-08T12:57:00,mfh,58.64
2022-05-08T12:58:00,mfh,59.38
2022-05-08T12:59:00,mfh,59.03
2022-05-08T13:00:00,mfh,59.50
2022-05-08T13:01:00,mfh,59.55
2022-05-08T13:02:00,mfh,59.92
2022-05-08T13:03:00,mfh,59.25
2022-05-08T13:04:00,mfh,59.33
2022-05-08T13:05:00,mfh,59.80
2022-05-08T13:06:00,mfh,59.80
2022-05-08T13:07:00,mfh,60.43
2022-05-08T13:08:00,mfh,60.40
2022-05-08T13:09:00,mfh,60.39
2022-05-08T13:10:00,mfh,60.32
2022-05-08T13:11:00,mfh,59.50
2022-05-08T13:12:00,mfh,59.35
2022-05-08T13:13:00,mfh,59.71
2022-05-08T13:14:00,mfh,59.72
2022-05-08T13:15:00,mfh,60.37
2022-05-08T13:16:00,mfh,60.72
2022-05-08T13:17:00,mfh,60.09
2022-05-08T13:18:00,mfh,59.52